sat.trackr.live / text

‹ back to catalog

STARLINK-32386

NORAD 61213 · 2024-171P

PAYLOAD ACTIVE UNKNOWN

§ Identity

Operator
Country
US
Launch date
2024-09-20
Launch site
AFWTR
Launch vehicle
Mass (kg)
RCS (m²)

Purposes: comms

External: N2YO · Heavens-Above · Gunter

§ Orbital elements

Epoch: 2026-05-24T22:54:11.146752Z

Period
93.86 min
Inclination
53.1608°
Eccentricity
0.0000972
Mean motion
15.34119313 rev/d
Perigee alt
462.9 km
Apogee alt
464.2 km
Semi-major
6,841.7 km
B*
1.6139e-3
RAAN
327.5849°
Arg perigee
68.2665°
Mean anomaly
291.8441°
Rev number
9,405

§ Raw data

STARLINK-323861 61213U 24171P   26144.95429568  .00054060  00000+0  16139-2 0  99992 61213  53.1608 327.5849 0000972  68.2665 291.8441 15.34119313 94055

JSON: /api/v1/satellites/61213 · /tle

For live sub-satellite position, see the globe view (requires WebGL).

§ Visibility from observer

Set your observer location to see the next 7 days of passes ≥ 10°. The values pass through the URL so the page stays shareable.

No JS? Fill the form by hand. The geolocation button needs JavaScript.